Погода в Кергудах

Россия / Республика Мордовия     54°42′59″N   45°11′23″E
темп.,
°C
ветер,
м/с
пор.,
м/с
влажн.,
%
обл.,
%
осадки,
мм/ч
давл.,
гПа
погр.,
м
11 мая, вт
вт1100:00+10ссв6139654 0.0 1022365
03:00+10ссв51496100 0.0 1022353
06:00+11св5129498 0.0 1023337
09:00+17всв587519 0.0 1023415
12:00+22в5848100 0.0 10241615
15:00+22вюв5949100 0.0 10241569
18:00+16ююз478295 0.1 1026335
21:00+13ссз0190100 0.1 102710
12 мая, ср
ср1200:00+12в11906 0.0 102710
03:00+11ссв229246 0.0 102718
06:00+14всв3108586 0.0 1026262
09:00+19в61259100 0.0 10251119
12:00+17вюв51268100 0.0 1025719
15:00+17вюв6136599 0.0 1025662
18:00+17вюв5146473 0.0 1024678
21:00+14вюв267667 0.0 1024121
13 мая, чт
чт1300:00+13в238394 0.0 102440
03:00+13в398065 0.0 1024212
06:00+14в41176100 0.0 1023300
09:00+15вюв5156779 0.0 1023607
12:00+15вюв6148571 0.4 1022707
15:00+17вюв6127789 0.5 1021705
18:00+19ююв5127499 2.9 1020522
21:00+16вюв4128524 5.3 1019324
14 мая, пт
пт1400:00+14ююв41486100 2.6 1019368
03:00+12ююв119198 3.9 102010
06:00+14ююв1286100 0.0 102086
09:00+18ююв2373100 0.0 1020395
12:00+22ю3463100 0.0 1020756
15:00+24ю355613 0.0 10201254
18:00+23юв24708 0.0 1018103
21:00+17юв337735 0.0 101836
15 мая, сб
сб1500:00+16юв238164 0.0 101845
03:00+14ююв238223 0.1 101837
06:00+16юв297295 0.0 1018237
09:00+22ю5105157 0.0 1018464
12:00+25ю6104210 0.0 1018882
15:00+26ююв611445 0.0 10161248
18:00+23ююв5135628 0.0 1016608
21:00+19ююв41463100 0.0 1015323